OpenBCM V1.08-5-g2f4a (Linux)

Packet Radio Mailbox

IZ3LSV

[San Dona' di P. JN]

 Login: GUEST





  
I0OJJ  > KEPS     02.06.25 02:44l 357 Lines 16944 Bytes #72 (0) @ AMSAT
BID : ORB25153.1
Read: GUEST
Subj: 2Line Orbital Elements 25153.AMSAT
Path: IZ3LSV<IK6IHL<IK7NXU<HB9ON<DK0WUE<PD0LPM<IR0AAB<I0OJJ<I0OJJ
Sent: 250602/0025z @:I0OJJ.ITA.EU [Rome] obcm1.08-10-g596e

>From i0ojj%i0ojj.ita.eu@i0ojj.ampr.org Mon Jun  2 02:25:06 2025
Received: from i0ojj.ampr.org by i0ojj.ampr.org (JNOS2.0p.8) with SMTP
	id AA17032531 ; Mon, 02 Jun 2025 02:25:06 +0200
Message-Id: <ORB25153.1@i0ojj.bbs>
>From: i0ojj@i0ojj.ita.eu
X-JNOS-User-Port: Telnet   (i0ojj @ 44.134.109.10)  -> Sending message

From: I0OJJ @ I0OJJ.ITA.EU (Gustavo)
To:   KEPS @ AMSAT
X-Info: This message was generated automatically


QST de W1STR

AMSAT Orbital Elements for Amateur Satellites in TLE Format
>From Orbital Analysis Office
New England Sci-Tech STEM Education Center
Natick, MA June 02, 2025
To all radio amateurs


These element sets describe the orbits of various satellites 
in use by the amateur radio community. For details see:
www.amsat.org/keplerian-elements-formats/

A daily update of element sets is available at:
www.amsat.org/tle/daily-bulletin.txt
or without bulletin text:
www.amsat.org/tle/dailytle.txt


AO-07
1 07530U 74089B   25152.59974428 -.00000033  00000-0  83031-4 0  9992
2 07530 101.9929 156.7790 0012527 136.0999 346.4088 12.53689433312820
UO-11
1 14781U 84021B   25152.87497951  .00001683  00000-0  18299-3 0  9991
2 14781  97.7538 119.3963 0008101  13.7802 346.3635 14.89366521221498
AO-27
1 22825U 93061C   25152.38552701  .00000155  00000-0  76381-4 0  9994
2 22825  98.7369 213.9000 0009292 132.2351 227.9621 14.30796669652549
FO-29
1 24278U 96046B   25152.69347259  .00000058  00000-0  95519-4 0  9994
2 24278  98.5769  47.6222 0350078   3.2354 357.0937 13.53248770421957
NOAA-15
1 25338U 98030A   25152.81801181  .00000293  00000-0  13803-3 0  9996
2 25338  98.5351 178.1362 0010728  28.8783 331.2990 14.26975300407292
GO-32
1 25397U 98043D   25152.89426317  .00000101  00000-0  63984-4 0  9991
2 25397  98.9698 131.8533 0000784 174.4785 185.6401 14.24313266397417
ISS
1 25544U 98067A   25152.85500044  .00015665  00000-0  28262-3 0  9997
2 25544  51.6369  23.0509 0001835 179.7810 180.3180 15.49928440512781
NO-44
1 26931U 01043C   25152.40275887  .00000211  00000-0  10996-3 0  9997
2 26931  67.0488 148.9823 0005994 275.2546  84.7872 14.31730275235930
SO-50
1 27607U 02058C   25152.58799460  .00002288  00000-0  30117-3 0  9995
2 27607  64.5526 225.2041 0055429 335.8673  23.9836 14.81610722208045
CO-55
1 27844U 03031E   25151.96694111  .00000333  00000-0  16393-3 0  9997
2 27844  98.6756 160.3518 0009022 205.7609 154.3121 14.23989466137442
CO-57
1 27848U 03031J   25152.75489690  .00000674  00000-0  31671-3 0  9997
2 27848  98.6784 161.1414 0008652 221.9632 138.0884 14.23328336137308
RS-22
1 27939U 03042A   25152.86921800  .00001621  00000-0  26443-3 0  9990
2 27939  98.3280 322.1348 0012189  40.0998  96.1690 14.72336762159698
NOAA-18
1 28654U 05018A   25152.76546057  .00000514  00000-0  29580-3 0  9991
2 28654  98.8423 232.3295 0014905 148.2712 211.9361 14.13608907 32648
CO-58
1 28895U 05043F   25152.35562310  .00001849  00000-0  30946-3 0  9991
2 28895  98.2489 296.6035 0013860 337.9017  22.1590 14.70988090 45737
CO-65
1 32785U 08021C   25152.88962177  .00005675  00000-0  41108-3 0  9999
2 32785  97.7838 123.9972 0008276 232.3229 127.7246 15.04352828927991
CO-66
1 32791U 08021J   25152.40142572  .00013015  00000-0  63352-3 0  9995
2 32791  97.7277 132.2618 0003843 163.1771 196.9590 15.18509479929255
RS-30
1 32953U 08025A   25152.83698724  .00000035  00000-0  17597-3 0  9999
2 32953  82.5037 231.9914 0020283  65.4507 294.8684 12.43164877772572
NOAA-19
1 33591U 09005A   25152.84144777  .00000248  00000-0  15623-3 0  9996
2 33591  98.9975 217.5025 0014144  30.2020 329.9964 14.13370638841015
SRMSAT
1 37841U 11058D   25152.84147645  .00000417  00000-0  82683-4 0  9995
2 37841  19.9704 201.3800 0011743 340.8303 190.2891 14.11433580704243
ZACUBE-1
1 39417U 13066B   25152.83064942  .00014578  00000-0  12562-2 0  9994
2 39417  97.7798 109.8850 0046357  78.6053 282.0371 14.96584874623750
Delfi-N3xt
1 39428U 13066N   25152.49376913  .00023319  00000-0  23558-2 0  9992
2 39428  97.8348  70.2345 0086017  28.2727 332.3119 14.88272688617873
GOMX-1
1 39430U 13066Q   25152.84983150  .00002322  00000-0  36684-3 0  9997
2 39430  97.6844  11.9889 0131542 216.6914 142.5231 14.67607367614275
LO-74
1 39440U 13066AA  25152.81985577  .00007844  00000-0  79272-3 0  9994
2 39440  97.8492  97.4344 0061253 204.3854 155.4463 14.89896177621484
AO-73
1 39444U 13066AE  25152.35435346  .00008478  00000-0  63442-3 0  9997
2 39444  97.7840 114.2368 0044239  56.6517 303.8930 15.02205936622355
DTUSAT-2
1 40030U 14033W   25152.86052396  .00017649  00000-0  11426-2 0  9995
2 40030  98.0553 124.3068 0011026  86.9620 273.2869 15.08174246595749
EO-80
1 40032U 14033Y   25152.88124950  .00009395  00000-0  61019-3 0  9998
2 40032  98.0426 123.9940 0009556  36.1604 324.0268 15.08237768595734
LILACSAT-2
1 40908U 15049K   25152.80633817  .00016577  00000-0  43422-3 0  9995
2 40908  97.5062 172.9662 0009478 176.2603 183.8714 15.38732702537036
IO-86
1 40931U 15052B   25103.16584653  .00001824  00000-0  15574-3 0  9999
2 40931   5.9984   7.7323 0012484  15.4851 344.5658 14.78734415515920
Horyu-4
1 41340U 16012D   25152.42360639  .00021623  00000-0  58360-3 0  9999
2 41340  30.9948 186.7772 0006202 328.0440  31.9829 15.36522460511537
Lapan A3
1 41603U 16040E   25152.84769957  .00004116  00000-0  14495-3 0  9993
2 41603  97.1371 157.7595 0009264 302.6096  57.4250 15.29807565496606
CAS-2T
1 41847U 16066G   25152.50220900  .00002366  00000-0  34535-3 0  9996
2 41847  98.4203 227.0352 0345791 202.7591 155.7952 14.43455309449850
CAS-4B
1 42759U 17034B   25152.79878307  .00082723  00000-0  89494-3 0  9995
2 42759  43.0082   8.2281 0021129 240.0044 119.8723 15.62342270441389
CAS-4A
1 42761U 17034D   25152.83809885  .00086530  00000-0  89074-3 0  9992
2 42761  43.0122   5.2328 0022499 244.2703 115.5839 15.63549518441415
TechnoSat
1 42829U 17042E   25152.51455598  .00007420  00000-0  57413-3 0  9992
2 42829  97.3919 321.6157 0012826 306.9504  53.0546 15.01685022429510
AO-91
1 43017U 17073E   25152.87879890  .00009798  00000-0  50352-3 0  9995
2 43017  97.5245  23.8480 0172646 192.3145 167.3838 15.04580870408056
S-Net D
1 43186U 18014G   25152.68857976  .00013058  00000-0  76806-3 0  9994
2 43186  97.5627  55.6751 0007466 248.9001 111.1431 15.11763895401188
S-Net B
1 43187U 18014H   25152.69386876  .00012463  00000-0  73363-3 0  9996
2 43187  97.5634  55.6519 0008162 243.3063 116.7332 15.11743732401189
S-Net A
1 43188U 18014J   25152.49041794  .00012506  00000-0  73576-3 0  9996
2 43188  97.5639  55.5994 0008063 245.2109 114.8282 15.11763764401150
S-Net C
1 43189U 18014K   25152.69623903  .00012178  00000-0  71679-3 0  9994
2 43189  97.5658  55.8163 0009631 235.9800 124.0516 15.11740012399733
Ten-Koh
1 43677U 18084G   25152.72724420  .00005592  00000-0  44817-3 0  9999
2 43677  98.0878 324.6722 0005067 294.5473  65.5221 15.00550690359062
PO-101
1 43678U 18084H   25152.84189621  .00003515  00000-0  30055-3 0  9993
2 43678  98.1048 328.6702 0006739 324.7200  35.3575 14.98307421359229
QO-100
1 43700U 18090A   25152.80386529  .00000140  00000-0  00000+0 0  9992
2 43700   0.0172 339.4626 0001942 125.7340 100.5007  1.00270320 24102
MinXSS-2
1 43758U 18099A   25152.65609269  .00049160  00000-0  19289-2 0  9993
2 43758  97.5013 218.6668 0012423 176.5303 183.6023 15.25497635355764
AO-95
1 43770U 18099N   25152.73422545  .00025162  00000-0  12680-2 0  9990
2 43770  97.4912 210.9070 0009506 232.4100 127.6271 15.17112164355363
RANGE-A
1 43773U 18099R   25152.70989289  .00011810  00000-0  74873-3 0  9991
2 43773  97.4478 201.3404 0010468 210.7870 149.2746 15.09029567355036
MOVE-II
1 43780U 18099Y   25152.77765107  .00369392  00000-0  26160-2 0  9993
2 43780  97.4647 227.8211 0006380 190.9123 169.2003 15.72878590356575
SNUSat 2
1 43782U 18099AA  25152.67839478  .00022153  00000-0  12014-2 0  9991
2 43782  97.4599 207.6675 0012478 173.2938 186.8463 15.14514621355309
SnugLite
1 43784U 18099AC  25152.70030216  .00032334  00000-0  16131-2 0  9996
2 43784  97.4409 207.2337 0004131 159.6087 200.5313 15.17440705355449
ITASat 1
1 43786U 18099AE  25152.60889974  .00018682  00000-0  10624-2 0  9991
2 43786  97.4565 207.1331 0013138 228.5299 131.4805 15.12847197355253
EAGLET 1
1 43790U 18099AJ  25152.72585521  .00010835  00000-0  68783-3 0  9992
2 43790  97.4761 207.2304 0011308 208.9805 151.0797 15.08998581354884
ESEO
1 43792U 18099AL  25152.87682489  .00003012  00000-0  23030-3 0  9996
2 43792  97.4483 200.7400 0012834 185.4627 174.6461 15.02589714354661
CSIM
1 43793U 18099AM  25152.75963543  .00532094  00000-0  38391-2 0  9999
2 43793  97.4805 230.0560 0006338 179.0878 181.0398 15.71973655356415
JO-97
1 43803U 18099AX  25152.68858432  .00036985  00000-0  16785-2 0  9994
2 43803  97.4661 211.8362 0008338 161.4828 198.6712 15.20673910355571
Suomi 100
1 43804U 18099AY  25152.69037672  .00032561  00000-0  15840-2 0  9998
2 43804  97.4727 211.1568 0013049 168.1508 192.0035 15.18253137355501
ISAT
1 43879U 18111D   25152.71085835  .00065686  00000-0  22710-2 0  9990
2 43879  97.5959  66.9312 0007352 213.1546 146.9234 15.29636457350479
UWE-4
1 43880U 18111E   25152.47380932  .00040252  00000-0  15739-2 0  9996
2 43880  97.5904  65.2238 0010190 233.0582 126.9723 15.25688170352394
Sparrow
1 43881U 18111F   25152.69913906  .00068648  00000-0  22865-2 0  9991
2 43881  97.6103  69.7664 0004531 263.0697  97.0028 15.30849152350581
Prox-1
1 44339U 19036A   25152.59388481  .00041475  00000-0  53215-2 0  9992
2 44339  23.9964 114.2466 0006785 342.5144  17.5119 14.79828801316924
SONATE
1 44400U 19038Q   25152.53513539  .00483080  90757-4  16096-2 0  9991
2 44400  97.6869 178.4767 0005108 214.0868 146.0076 15.90207988328299
